Location: Aydie
(43.5695°N, 0.1043°W)
Time: 06:59:26
(UTC+00:00)

Cosmos 540 Rocket - Pass Details

Date: 17 November 2025
Orbit: 735 x 747 km, 74.1° (Epoch: 13 December)

Event Time Altitude Azimuth Distance (km) Brightness Sun altitude
Rises 17:23:07 0° 343° (NNW) 3,198 6.7 -9.2°
Reaches altitude 10° 17:25:34 10° 349° (N) 2,269 5.9 -9.6°
Maximum altitude 17:30:34 51° 65° (ENE) 931 3.6 -10.5°
Drops below altitude 10° 17:35:31 10° 142° (SE) 2,246 5.7 -11.3°
Sets 17:37:55 0° 147° (SSE) 3,163 6.5 -11.8°
